Hourly Weather Roundup
Issued by NWS Central Illinois

Home | Current Version | Previous Version | Text Only | Print | Product List | Glossary On
Versions: 1 2 3 4 5 6 7 8 9 10 11 12 13 14 15 16 17 18 19 20 21 22 23 24 25 26 27 28 29 30 31 32 33 34 35 36 37 38 39 40 41 42 43 44 45 46 47 48 49 50
000
NZUS43 KILX 180010
HWRILX

AREA WEATHER ROUNDUP
NATIONAL WEATHER SERVICE, LINCOLN IL
700 PM CDT WED SEP 17 2014


CITY           SKY/WX    TMP DP  RH WIND       PRES   REMARKS
BLOOMINGTON    CLOUDY    64  48  56 CALM      29.98S
CHAMPAIGN      CLOUDY    63  52  67 SE3       29.96F
6HR MIN TEMP:  63; 6HR MAX TEMP:  70;

DECATUR        CLEAR     63  52  67 SE6       29.97R
6HR MIN TEMP:  63; 6HR MAX TEMP:  68;

FLORA          NOT AVBL
GALESBURG      CLEAR     64  55  71 CALM      29.97R
JACKSONVILLE   CLEAR     63  56  77 S6        29.98R
6HR MIN TEMP:  63; 6HR MAX TEMP:  69; 6HR PCP:  0.01;

LACON          CLEAR     61  55  81 CALM      29.97R
6HR MIN TEMP:  61; 6HR MAX TEMP:  68;

LAWRENCEVILLE  MOCLDY    61  58  90 E7        29.96S
6HR MIN TEMP:  61; 6HR MAX TEMP:  70; 6HR PCP: TRACE;

LITCHFIELD     CLOUDY    60  55  84 SE3       29.98R
$$


CITY           SKY/WX    TMP DP  RH WIND       PRES   REMARKS
LINCOLN        CLOUDY    65  53  63 CALM      29.94S
6HR MIN TEMP:  65; 6HR MAX TEMP:  71;

MACOMB         PTCLDY    64  55  74 E3        29.98R
MATTOON        CLEAR     60  55  83 CALM      29.97R
6HR MIN TEMP:  60; 6HR MAX TEMP:  66;

MT CARMEL AP   MOCLDY    66  55  68 CALM      29.96S
OLNEY-NOBLE AP CLOUDY    61  55  82 CALM      29.97R
PARIS          PTCLDY    60  54  78 CALM      29.98R
6HR MIN TEMP:  60; 6HR MAX TEMP:  69;

PEORIA         MOCLDY    64  53  67 CALM      29.97R
6HR MIN TEMP:  64; 6HR MAX TEMP:  70;

PONTIAC        CLEAR     63  54  72 CALM      29.97R
RANTOUL        CLOUDY    67  52  58 CALM      29.97S
6HR MIN TEMP:  67; 6HR MAX TEMP:  71;

ROBINSON       MOCLDY    60  58  91 E3        29.96F
6HR MIN TEMP:  60; 6HR MAX TEMP:  70; 6HR PCP:  0.05;

SPRINGFIELD    PTCLDY    62  52  69 S6        29.97R
6HR MIN TEMP:  62; 6HR MAX TEMP:  68;

TAYLORVILLE    CLEAR     55  54  94 S5        29.98R
$$

...REGIONAL REPORTS...


CITY           SKY/WX    TMP DP  RH WIND       PRES   REMARKS
CHICAGO O`HARE CLEAR     66  46  48 E8        29.98R
KANKAKEE       CLEAR     61  52  72 CALM      29.97S
MOLINE         CLEAR     63  53  70 CALM      29.96R
MOUNT VERNON   CLOUDY    63  55  77 CALM      29.97S
PITTSFIELD     CLOUDY    62  56  79 SE3       29.99R
QUINCY         CLOUDY    65  57  75 SE7       29.96R
ROCKFORD       PTCLDY    66  51  58 CALM      29.99R
$$


CITY           SKY/WX    TMP DP  RH WIND       PRES   REMARKS
BURLINGTON     CLEAR     66  55  67 E3        29.95S
CEDAR RAPIDS   CLEAR     65  56  72 E3        29.95S
DES MOINES     PTCLDY    72  56  57 E5        29.93S
KIRKSVILLE     PTCLDY    67  61  81 E5        29.94R
OTTUMWA        CLEAR     65  58  78 SE3       29.94S
ST LOUIS       LGT RAIN  64  56  75 E8        29.96R
$$


CITY           SKY/WX    TMP DP  RH WIND       PRES   REMARKS
TERRE HAUTE    CLOUDY    61  53  75 CALM      29.97S
EVANSVILLE     PTCLDY    65  54  67 N3        29.97R
INDIANAPOLIS   PTCLDY    62  49  62 CALM      29.96F
LAFAYETTE      CLEAR     59  53  80 N3        29.96F
MADISON        PTCLDY    60  52  74 CALM      29.98R
MILWAUKEE      PTCLDY    60  48  64 S8        29.98S
$$





USA.gov is the U.S. government's official web portal to all federal, state and local government web resources and services.